TimeCDT,TemperatureF,Dew PointF,Humidity,Sea Level PressureIn,VisibilityMPH,Wind Direction,Wind SpeedMPH,Gust SpeedMPH,PrecipitationIn,Events,Conditions,WindDirDegrees,DateUTC
12:53 AM,73.0,72.0,96,30.03,4.0,SE,4.6,-,N/A,,Clear,140,2012-05-27 05:53:00
1:38 AM,73.4,71.6,94,29.99,2.0,SSE,3.5,-,N/A,,Clear,160,2012-05-27 06:38:00
1:53 AM,73.0,72.0,96,30.01,2.0,SSE,3.5,-,N/A,,Clear,160,2012-05-27 06:53:00
2:01 AM,73.4,73.4,100,29.98,1.8,SSE,3.5,-,N/A,,Clear,160,2012-05-27 07:01:00
2:10 AM,73.4,71.6,94,29.98,2.5,SSE,3.5,-,N/A,,Clear,150,2012-05-27 07:10:00
2:53 AM,72.0,71.1,97,30.01,2.0,Calm,Calm,-,N/A,,Clear,0,2012-05-27 07:53:00
3:01 AM,71.6,71.6,100,29.98,1.8,Calm,Calm,-,N/A,,Clear,0,2012-05-27 08:01:00
3:12 AM,71.6,71.6,100,29.98,0.2,Calm,Calm,-,N/A,Fog,Fog,0,2012-05-27 08:12:00
3:30 AM,71.6,69.8,94,29.98,0.2,Calm,Calm,-,N/A,Fog,Fog,0,2012-05-27 08:30:00
3:53 AM,71.1,70.0,96,30.01,0.2,Calm,Calm,-,N/A,Fog,Fog,0,2012-05-27 08:53:00
4:26 AM,69.8,69.8,100,29.99,1.0,Calm,Calm,-,N/A,,Mist,0,2012-05-27 09:26:00
4:31 AM,69.8,69.8,100,29.99,3.0,Calm,Calm,-,N/A,,Mostly Cloudy,0,2012-05-27 09:31:00
4:38 AM,69.8,69.8,100,29.99,1.2,NE,3.5,-,N/A,,Mostly Cloudy,50,2012-05-27 09:38:00
4:45 AM,69.8,69.8,100,29.99,0.5,Calm,Calm,-,N/A,Fog,Fog,0,2012-05-27 09:45:00
4:50 AM,69.8,69.8,100,29.99,2.5,Calm,Calm,-,N/A,,Mostly Cloudy,0,2012-05-27 09:50:00
4:53 AM,70.0,69.1,97,30.02,4.0,Calm,Calm,-,N/A,,Mostly Cloudy,0,2012-05-27 09:53:00
5:10 AM,71.6,69.8,94,29.99,2.0,Calm,Calm,-,N/A,,Mostly Cloudy,0,2012-05-27 10:10:00
5:23 AM,71.6,69.8,94,30.00,4.0,Calm,Calm,-,N/A,,Overcast,0,2012-05-27 10:23:00
5:53 AM,71.1,70.0,96,30.02,3.0,Calm,Calm,-,N/A,,Mostly Cloudy,0,2012-05-27 10:53:00
6:01 AM,69.8,69.8,100,30.00,2.0,Calm,Calm,-,N/A,,Mostly Cloudy,0,2012-05-27 11:01:00
6:12 AM,69.8,69.8,100,30.00,0.5,Calm,Calm,-,N/A,Fog,Fog,0,2012-05-27 11:12:00
6:19 AM,69.8,68.0,94,30.01,0.2,Calm,Calm,-,N/A,Fog,Fog,0,2012-05-27 11:19:00
6:30 AM,69.8,69.8,100,30.01,0.2,Calm,Calm,-,N/A,Fog,Fog,0,2012-05-27 11:30:00
6:53 AM,70.0,70.0,100,30.04,0.2,Calm,Calm,-,N/A,Fog,Fog,0,2012-05-27 11:53:00
7:47 AM,73.4,73.4,100,30.03,1.2,Calm,Calm,-,N/A,,Overcast,0,2012-05-27 12:47:00
7:53 AM,73.4,73.4,100,30.02,0.8,Calm,Calm,-,N/A,,Overcast,0,2012-05-27 12:53:00
8:08 AM,75.2,73.4,94,30.03,1.0,ENE,4.6,-,N/A,,Mostly Cloudy,70,2012-05-27 13:08:00
8:16 AM,75.2,73.4,94,30.03,3.0,ENE,5.8,-,N/A,,Mostly Cloudy,70,2012-05-27 13:16:00
8:23 AM,75.2,75.2,100,30.03,3.0,ENE,4.6,-,N/A,,Scattered Clouds,70,2012-05-27 13:23:00
8:53 AM,78.1,75.0,90,30.05,6.0,ENE,4.6,-,N/A,,Clear,70,2012-05-27 13:53:00
9:39 AM,80.6,73.4,79,30.03,9.0,Calm,Calm,-,N/A,,Mostly Cloudy,0,2012-05-27 14:39:00
9:46 AM,80.6,73.4,79,30.03,9.0,Calm,Calm,-,N/A,,Overcast,0,2012-05-27 14:46:00
9:53 AM,82.0,73.0,74,30.05,9.0,SSE,4.6,-,N/A,,Mostly Cloudy,150,2012-05-27 14:53:00
10:37 AM,82.4,73.4,74,30.03,10.0,Calm,Calm,-,N/A,,Scattered Clouds,0,2012-05-27 15:37:00
10:53 AM,84.0,72.0,67,30.06,10.0,Calm,Calm,-,N/A,,Mostly Cloudy,0,2012-05-27 15:53:00
11:13 AM,86.0,71.6,62,30.03,10.0,SSE,9.2,-,N/A,,Mostly Cloudy,150,2012-05-27 16:13:00
11:29 AM,86.0,71.6,62,30.03,10.0,South,4.6,-,N/A,,Scattered Clouds,170,2012-05-27 16:29:00
11:53 AM,87.1,70.0,57,30.05,10.0,Calm,Calm,-,N/A,,Clear,0,2012-05-27 16:53:00
12:53 PM,88.0,68.0,51,30.03,10.0,SSE,5.8,-,N/A,,Clear,160,2012-05-27 17:53:00
1:53 PM,90.0,64.9,43,30.01,10.0,SW,4.6,-,N/A,,Partly Cloudy,230,2012-05-27 18:53:00
2:53 PM,90.0,66.0,45,29.98,10.0,South,6.9,-,N/A,,Clear,180,2012-05-27 19:53:00
3:53 PM,91.0,64.0,41,29.97,10.0,SSE,9.2,16.1,N/A,,Clear,160,2012-05-27 20:53:00
4:53 PM,88.0,71.1,57,29.96,10.0,SW,9.2,-,N/A,,Clear,230,2012-05-27 21:53:00
5:53 PM,86.0,69.1,57,29.96,10.0,SW,8.1,-,N/A,,Clear,220,2012-05-27 22:53:00
6:53 PM,84.0,71.1,65,29.95,10.0,SSW,5.8,-,N/A,,Clear,210,2012-05-27 23:53:00
7:53 PM,81.0,72.0,74,29.95,10.0,SW,4.6,-,N/A,,Clear,220,2012-05-28 00:53:00
8:53 PM,78.1,73.0,84,29.95,10.0,SW,3.5,-,N/A,,Clear,220,2012-05-28 01:53:00
9:53 PM,77.0,73.0,88,29.97,10.0,Calm,Calm,-,N/A,,Clear,0,2012-05-28 02:53:00
10:53 PM,73.9,72.0,93,29.97,9.0,Calm,Calm,-,N/A,,Clear,0,2012-05-28 03:53:00
11:53 PM,73.0,71.1,93,29.96,9.0,Calm,Calm,-,N/A,,Clear,0,2012-05-28 04:53:00